Tiempo cada hora Barshamay

Hoy, 25 Febrero, Jueves

Tiempo Temperatura Precipitaciones Viento Presión Humedad
00:00 -10°C° 0 mm 1 mps 725 mmHg 66%
01:00 -10°C° 0 mm 1 mps 725 mmHg 64%
02:00 -9°C° 0 mm 1 mps 725 mmHg 63%
03:00 -12°C° 0 mm 2 mps 724 mmHg 60%
04:00 -10°C° 0 mm 2 mps 724 mmHg 58%
05:00 -10°C° 0 mm 2 mps 724 mmHg 56%
06:00 -10°C° 0 mm 2 mps 724 mmHg 54%
07:00 -9°C° 0 mm 2 mps 724 mmHg 58%
08:00 -7°C° 0 mm 2 mps 724 mmHg 61%
09:00 -6°C° 0 mm 2 mps 724 mmHg 64%
10:00 -5°C° 0 mm 2 mps 724 mmHg 64%
11:00 -4°C° 0 mm 2 mps 724 mmHg 65%
12:00 -4°C° 0 mm 3 mps 724 mmHg 65%
13:00 -4°C° 0 mm 3 mps 723 mmHg 67%
14:00 -2°C° 0 mm 3 mps 723 mmHg 68%
15:00 -2°C° 0 mm 3 mps 722 mmHg 69%
16:00 -3°C° 0 mm 2 mps 722 mmHg 71%
17:00 -4°C° 0 mm 2 mps 722 mmHg 73%
18:00 -5°C° 0 mm 2 mps 722 mmHg 75%
19:00 -4°C° 0 mm 2 mps 721 mmHg 70%
20:00 -2°C° 0 mm 1 mps 721 mmHg 66%
21:00 -2°C° 0 mm 1 mps 721 mmHg 62%
22:00 -2°C° 0 mm 1 mps 721 mmHg 59%
23:00 -1°C° 0 mm 1 mps 720 mmHg 57%

Mañana, 26 Febrero, Viernes

Tiempo Temperatura Precipitaciones Viento Presión Humedad
00:00 0°C° 0 mm 1 mps 720 mmHg 54%
01:00 0°C° 0 mm 1 mps 720 mmHg 54%
02:00 -1°C° 0 mm 1 mps 719 mmHg 53%
03:00 -1°C° 0 mm 1 mps 719 mmHg 53%
04:00 -1°C° 0 mm 1 mps 719 mmHg 53%
05:00 -1°C° 0 mm 1 mps 718 mmHg 52%
06:00 -1°C° 0 mm 1 mps 718 mmHg 52%
07:00 +1°C° 0 mm 1 mps 718 mmHg 50%
08:00 +2°C° 0 mm 1 mps 719 mmHg 49%
09:00 +4°C° 0 mm 1 mps 719 mmHg 48%
10:00 +4°C° 0 mm 1 mps 718 mmHg 50%
11:00 +4°C° 0 mm 2 mps 718 mmHg 53%
12:00 +4°C° 0 mm 2 mps 718 mmHg 56%
13:00 +4°C° 0 mm 2 mps 718 mmHg 58%
14:00 +5°C° 0 mm 2 mps 717 mmHg 60%
15:00 +5°C° 0 mm 2 mps 717 mmHg 63%
16:00 +3°C° 0 mm 2 mps 717 mmHg 66%
17:00 +3°C° 0 mm 1 mps 717 mmHg 69%
18:00 +2°C° 0 mm 1 mps 717 mmHg 72%
19:00 +2°C° 0 mm 1 mps 717 mmHg 70%
20:00 +2°C° 0 mm 1 mps 717 mmHg 68%
21:00 +2°C° 0 mm 1 mps 717 mmHg 67%
22:00 +2°C° 0 mm 1 mps 717 mmHg 66%
23:00 +2°C° 0 mm 1 mps 716 mmHg 65%

Pasado mañana, 27 Febrero, Sábado

Tiempo Temperatura Precipitaciones Viento Presión Humedad
00:00 +2°C° 0 mm 1 mps 716 mmHg 64%
01:00 +2°C° 0 mm 1 mps 716 mmHg 63%
02:00 +2°C° 0 mm 1 mps 715 mmHg 63%
03:00 +1°C° 0 mm 1 mps 715 mmHg 62%
04:00 +1°C° 0 mm 1 mps 715 mmHg 62%
05:00 +1°C° 0 mm 1 mps 715 mmHg 62%
06:00 -1°C° 0 mm 2 mps 715 mmHg 62%
07:00 +3°C° 0 mm 1 mps 715 mmHg 62%
08:00 +4°C° 0 mm 1 mps 715 mmHg 63%
09:00 +6°C° 0 mm 1 mps 715 mmHg 63%
10:00 +6°C° 0 mm 2 mps 714 mmHg 65%
11:00 +6°C° 0 mm 2 mps 714 mmHg 66%
12:00 +7°C° 0 mm 3 mps 713 mmHg 68%
13:00 +7°C° 0 mm 3 mps 713 mmHg 69%
14:00 +7°C° 0 mm 2 mps 712 mmHg 69%
15:00 +7°C° 0 mm 2 mps 712 mmHg 70%
16:00 +6°C° 0 mm 2 mps 712 mmHg 73%
17:00 +4°C° 0 mm 2 mps 711 mmHg 76%
18:00 +4°C° 0 mm 1 mps 711 mmHg 79%
19:00 +4°C° 0 mm 1 mps 711 mmHg 77%
20:00 +4°C° 0 mm 1 mps 711 mmHg 74%
21:00 +2°C° 0 mm 2 mps 711 mmHg 71%
22:00 +2°C° 0 mm 2 mps 710 mmHg 69%
23:00 +2°C° 0 mm 2 mps 710 mmHg 67%

28 Febrero, Domingo

Tiempo Temperatura Precipitaciones Viento Presión Humedad
00:00 +2°C° 0 mm 2 mps 709 mmHg 65%
01:00 +2°C° 0 mm 2 mps 709 mmHg 62%
02:00 +2°C° 0 mm 2 mps 709 mmHg 60%
03:00 +2°C° 0 mm 2 mps 708 mmHg 58%
04:00 +2°C° 0 mm 2 mps 708 mmHg 56%
05:00 +2°C° 0 mm 2 mps 708 mmHg 54%
06:00 +2°C° 0 mm 2 mps 708 mmHg 53%
07:00 +3°C° 0 mm 2 mps 708 mmHg 54%
08:00 +6°C° 0 mm 1 mps 708 mmHg 55%
09:00 +7°C° 0 mm 1 mps 708 mmHg 56%
10:00 +6°C° 0 mm 2 mps 708 mmHg 60%
11:00 +6°C° 0 mm 2 mps 708 mmHg 65%
12:00 +5°C° 0 mm 3 mps 708 mmHg 70%
13:00 +5°C° 0 mm 3 mps 708 mmHg 76%
14:00 +4°C° 0 mm 4 mps 708 mmHg 82%
15:00 +4°C° 0 mm 4 mps 708 mmHg 89%
16:00 +3°C° 0 mm 3 mps 709 mmHg 90%
17:00 +3°C° 0 mm 2 mps 709 mmHg 92%
18:00 +3°C° 0 mm 2 mps 710 mmHg 94%
19:00 +4°C° 0.1 mm 1 mps 710 mmHg 94%
20:00 +3°C° 0.1 mm 1 mps 711 mmHg 93%
21:00 +3°C° 0.1 mm 1 mps 712 mmHg 92%
22:00 +3°C° 0.2 mm 1 mps 712 mmHg 92%
23:00 +2°C° 0.2 mm 1 mps 712 mmHg 92%

1 Marzo, Lunes

Tiempo Temperatura Precipitaciones Viento Presión Humedad
00:00 +2°C° 0.2 mm 1 mps 713 mmHg 92%
01:00 +2°C° 0.1 mm 1 mps 713 mmHg 92%
02:00 +2°C° 0.1 mm 1 mps 713 mmHg 92%
03:00 +1°C° 0.1 mm 1 mps 713 mmHg 92%
04:00 +1°C° 0 mm 1 mps 714 mmHg 91%
05:00 +1°C° 0 mm 1 mps 714 mmHg 90%
06:00 +1°C° 0 mm 1 mps 715 mmHg 88%
07:00 +2°C° 0 mm 1 mps 715 mmHg 88%
08:00 +1°C° 0 mm 2 mps 716 mmHg 88%
09:00 +2°C° 0 mm 2 mps 716 mmHg 88%
10:00 +2°C° 0.1 mm 2 mps 716 mmHg 89%
11:00 +1°C° 0.1 mm 3 mps 716 mmHg 91%
12:00 +1°C° 0.1 mm 3 mps 716 mmHg 92%
13:00 +1°C° 0.4 mm 3 mps 716 mmHg 92%
14:00 +1°C° 0.4 mm 2 mps 716 mmHg 92%
15:00 +1°C° 0.4 mm 2 mps 716 mmHg 92%
16:00 +1°C° 0.3 mm 2 mps 717 mmHg 93%
17:00 +1°C° 0.3 mm 1 mps 717 mmHg 94%
18:00 +1°C° 0.3 mm 1 mps 717 mmHg 95%
19:00 +1°C° 0.1 mm 1 mps 718 mmHg 94%
20:00 0°C° 0.1 mm 1 mps 718 mmHg 94%
21:00 0°C° 0.1 mm 1 mps 718 mmHg 94%
22:00 0°C° 0 mm 1 mps 719 mmHg 93%
23:00 -1°C° 0 mm 1 mps 719 mmHg 91%

2 Marzo, Martes

Tiempo Temperatura Precipitaciones Viento Presión Humedad
00:00 -1°C° 0 mm 1 mps 719 mmHg 90%
01:00 -2°C° 0 mm 0 mps 719 mmHg 91%
02:00 -2°C° 0 mm 0 mps 719 mmHg 91%
03:00 -2°C° 0 mm 0 mps 719 mmHg 91%
04:00 -2°C° 0.2 mm 0 mps 719 mmHg 92%
05:00 -2°C° 0.2 mm 0 mps 719 mmHg 94%
06:00 -1°C° 0.2 mm 1 mps 719 mmHg 95%
07:00 0°C° 0.2 mm 1 mps 719 mmHg 94%
08:00 0°C° 0.2 mm 1 mps 720 mmHg 94%
09:00 +1°C° 0.2 mm 1 mps 720 mmHg 94%
10:00 -1°C° 0.3 mm 2 mps 720 mmHg 94%
11:00 -1°C° 0.3 mm 2 mps 720 mmHg 95%
12:00 -1°C° 0.3 mm 2 mps 720 mmHg 96%
13:00 -1°C° 0.3 mm 2 mps 719 mmHg 96%
14:00 -1°C° 0.3 mm 2 mps 719 mmHg 96%
15:00 -1°C° 0.3 mm 2 mps 718 mmHg 95%
16:00 +1°C° 0.2 mm 1 mps 718 mmHg 96%
17:00 0°C° 0.2 mm 1 mps 718 mmHg 96%
18:00 0°C° 0.2 mm 1 mps 718 mmHg 96%
19:00 0°C° 0 mm 1 mps 718 mmHg 94%
20:00 -2°C° 0 mm 0 mps 718 mmHg 93%
21:00 -2°C° 0 mm 0 mps 718 mmHg 91%
22:00 -2°C° 0 mm 0 mps 718 mmHg 89%
23:00 -1°C° 0 mm 1 mps 718 mmHg 88%
Mostrar más

Necesitamos Su Consentimiento

Meteoprog y nuestros Proveedores de Servicios pueden almacenar y acceder a sus datos personales como cookies, identificadores de dispositivo u otras tecnologías similares de su dispositivo y procesar dichos datos para personalizar contenido y anuncios, además de ofrecer funciones de redes sociales y analizar el tráfico.

  • Almacenar y/o acceder a información en su dispositivo

    Se puede almacenar o acceder a cookies, identificadores de dispositivo u otra información de su dispositivo para los fines anteriormente indicados.

  • Anuncios y contenido personalizados, medición de anuncios y contenido, percepciones del público, y desarrollo de productos

    Los anuncios y el contenido pueden personalizarse en base a su perfil. Se pueden añadir más datos para personalizar mejor los anuncios y contenidos. Se puede medir el rendimiento de los anuncios y contenidos. Se puede obtener la percepción sobre el público que ha visto los anuncios y contenidos. Dichos datos pueden usarse para desarrollar o mejorar la experiencia del usuario, sistemas y software.

Al hacer clic en ‘Estoy De Acuerdo’ usted permitirá el uso de las cookies, identificadores de dispositivo, balizas web u otras tecnologías similares indicadas. Su configuración puede cambiarse desde el navegador de su dispositivo.

Para ciertos fines, los intereses legítimos pueden ser considerados por encima del consentimiento. Puede leer más sobre ello en nuestra Política de Privacidad y Cookies.